COSMOS 970 DEB, 65009

Orbit data source: Space-Track

COSMOS 970 DEB, 65009 is space debris in LEO originally from a launch on Wed, 21 Dec 1977 UTC launched from the Tyuratam Missile And Space Complex (TTMTR). Debris objects in space refer to the collection of defunct objects orbiting the Earth. Examples of debris include non-operational satellites, rocket bodies, and fragments generated from explosions, collisions, or faulty payload assembly.

Loading next visibility...
Identifier
65009, 1977-121DW
Orbit
LEO
Country
Flag of CISCIS
Related business
Manufacturer
Unknown
Mission
Spacecraft
Bus & Motor
Unknown
Mass
Unknown
Launch date (UTC)
1977-12-21 (48 years ago)
Launch vehicle
Unknown
Launch site
Tyuratam Missile And Space Complex (TTMTR)
Object type
Payload
Rocket body
Debris
Shape & HBR
Unknown shape, 0.1 m
Radar Cross Section
Small (<0.1 m²)

Expand to show TLE details & history
Last TLE update: 5 days ago

TLE from 5 days ago
0 COSMOS 970 DEB
1 65009U 77121DW  26167.08608874  .00001343  00000-0  12641-2 0  9998
2 65009  65.8417  96.5980 0108799 125.2763 257.0700 13.82111324191794
Epoch: 2026-06-16T02:03Z
TLE epoch observation values (Epoch: 2026-06-16T02:03:58.067Z)
Latitude
19.222°
Longitude
170.19331°
Altitude
976.612 km
Speed
7.356 km/s
True Right ascension
07h 02m 11s
True Declination
19° 07' 07"
Sunlit
Object was in daylight at epoch
Visualization orbit readout
Latitude
Unknown
Longitude
Unknown
Altitude
Unknown
Speed
Unknown
Apparent Right ascension
Unknown
Apparent Declination
Unknown
Sunlit
N/A
Visualization observer readout
Local Sidereal Time
07:18:39
Azimuth
Unknown
Elevation
Unknown
Doppler factor
Unknown
Orbital elements
Apogee altitude
1,034.701 km
Perigee altitude
875.135 km
Semi-major axis
7,333.055 km
Eccentricity
0.01088
Inclination
65.8417°
RAAN
96.598°
Arg. of periapsis
125.2763°
True anomaly
255.85864°
Mean anomaly
257.07°
Eccentric anomaly
256.46394°
Mean motion
3.45633 °/min
Orbital period
104.16 mins
BSTAR
0.0012641
Loading maneuver chart data...
Computing Atmospheric mass density...
Loading historical data...
Loading historical data...
Loading historical data...
Loading historical data...
Loading historical data...
Loading historical data...
Loading historical data...

Documentation

Showing up to 5 results
|